| time (UTC) | temp F | wind direction | speed MPH | gust MPH | rain 1hr in | rain 24hr in | rain mn in | humidity % | barometer mb |
| 20260505125018 | 63 | 315 | 1.0 | 4.0 | 0.00 | 0.00 | 0.00 | 69 | 1011.1 |
| 20260505124018 | 63 | 293 | 4.0 | 13.0 | 0.00 | 0.00 | 0.00 | 68 | 1011.2 |
| 20260505123017 | 62 | 315 | 1.0 | 8.0 | 0.00 | 0.00 | 0.00 | 72 | 1011.1 |
| 20260505122037 | 62 | 293 | 2.0 | 5.0 | 0.00 | 0.00 | 0.00 | 70 | 1011.3 |
| 20260505121017 | 61 | 315 | 3.0 | 7.0 | 0.00 | 0.00 | 0.00 | 70 | 1011.1 |
| 20260505120040 | 61 | 315 | 2.0 | 4.0 | 0.00 | 0.00 | 0.00 | 72 | 1011.0 |
| 20260505115039 | 60 | 315 | 2.0 | 6.0 | 0.00 | 0.00 | 0.00 | 74 | 1011.1 |
| 20260505114019 | 59 | 315 | 3.0 | 7.0 | 0.00 | 0.00 | 0.00 | 75 | 1010.6 |
| 20260505113019 | 58 | 338 | 2.0 | 5.0 | 0.00 | 0.00 | 0.00 | 76 | 1010.5 |
| 20260505112019 | 58 | 315 | 2.0 | 5.0 | 0.00 | 0.00 | 0.00 | 77 | 1010.7 |
| 20260505111019 | 57 | 315 | 1.0 | 3.0 | 0.00 | 0.00 | 0.00 | 79 | 1010.4 |
| 20260505102019 | 53 | 338 | 1.0 | 4.0 | 0.00 | 0.00 | 0.00 | 82 | 1010.4 |
| 20260505101017 | 53 | 315 | 1.0 | 4.0 | 0.00 | 0.00 | 0.00 | 81 | 1010.4 |
| 20260505100019 | 52 | 180 | 1.0 | 2.0 | 0.00 | 0.00 | 0.00 | 81 | 1010.4 |
| 20260505095019 | 52 | 180 | 1.0 | 4.0 | 0.00 | 0.00 | 0.00 | 81 | 1010.3 |
| 20260505094019 | 52 | 0 | 1.0 | 4.0 | 0.00 | 0.00 | 0.00 | 80 | 1010.4 |
| 20260505093019 | 52 | 315 | 1.0 | 3.0 | 0.00 | 0.00 | 0.00 | 80 | 1010.5 |
| 20260505092039 | 52 | 315 | 2.0 | 4.0 | 0.00 | 0.00 | 0.00 | 80 | 1010.3 |
| 20260505091019 | 52 | 338 | 2.0 | 7.0 | 0.00 | 0.00 | 0.00 | 80 | 1010.4 |
| 20260505090039 | 52 | 0 | 2.0 | 4.0 | 0.00 | 0.00 | 0.00 | 79 | 1010.4 |
| 20260505085019 | 52 | 0 | 1.0 | 4.0 | 0.00 | 0.00 | 0.00 | 79 | 1010.5 |
| 20260505084039 | 52 | 0.0 | 2.0 | 0.00 | 0.00 | 0.00 | 79 | 1010.5 | |
| 20260505083019 | 52 | 0.0 | 3.0 | 0.00 | 0.00 | 0.00 | 78 | 1010.7 | |
| 20260505082100 | 52 | 203 | 1.0 | 3.0 | 0.00 | 0.00 | 0.00 | 78 | 1010.9 |
| 20260505081039 | 52 | 135 | 1.0 | 3.0 | 0.00 | 0.00 | 0.00 | 77 | 1010.8 |
| 20260505080019 | 52 | 0.0 | 2.0 | 0.00 | 0.00 | 0.00 | 76 | 1010.8 | |
| 20260505075019 | 52 | 315 | 1.0 | 4.0 | 0.00 | 0.00 | 0.00 | 76 | 1010.8 |
| 20260505074019 | 52 | 180 | 1.0 | 3.0 | 0.00 | 0.00 | 0.00 | 75 | 1010.9 |
| 20260505073039 | 53 | 0.0 | 1.0 | 0.00 | 0.00 | 0.00 | 75 | 1011.0 | |
| 20260505072019 | 53 | 315 | 1.0 | 3.0 | 0.00 | 0.00 | 0.00 | 74 | 1011.0 |
| 20260505071039 | 53 | 68 | 1.0 | 4.0 | 0.00 | 0.00 | 0.00 | 74 | 1011.1 |
| 20260505070019 | 53 | 0 | 1.0 | 4.0 | 0.00 | 0.00 | 0.00 | 74 | 1011.1 |
| 20260505065019 | 53 | 338 | 1.0 | 4.0 | 0.00 | 0.00 | 0.00 | 73 | 1011.1 |
| 20260505064019 | 54 | 158 | 1.0 | 3.0 | 0.00 | 0.00 | 0.00 | 73 | 1011.1 |
| 20260505063039 | 54 | 338 | 1.0 | 3.0 | 0.00 | 0.00 | 0.00 | 73 | 1011.3 |
| 20260505062059 | 54 | 315 | 2.0 | 4.0 | 0.00 | 0.00 | 0.00 | 72 | 1011.2 |
| 20260505061019 | 54 | 315 | 2.0 | 4.0 | 0.00 | 0.00 | 0.00 | 72 | 1011.1 |
| 20260505060019 | 54 | 315 | 1.0 | 4.0 | 0.00 | 0.00 | 0.00 | 72 | 1011.1 |
| 20260505055039 | 54 | 338 | 1.0 | 3.0 | 0.00 | 0.00 | 0.00 | 72 | 1011.1 |
| 20260505054019 | 54 | 270 | 2.0 | 4.0 | 0.00 | 0.00 | 0.00 | 71 | 1011.3 |
| 20260505053019 | 54 | 315 | 2.0 | 5.0 | 0.00 | 0.00 | 0.00 | 71 | 1011.3 |
| 20260505052019 | 55 | 270 | 1.0 | 5.0 | 0.00 | 0.00 | 0.00 | 71 | 1011.2 |
| 20260505051018 | 55 | 315 | 1.0 | 4.0 | 0.00 | 0.00 | 0.00 | 70 | 1011.2 |
| 20260505041018 | 55 | 338 | 1.0 | 3.0 | 0.00 | 0.00 | 0.00 | 67 | 1011.3 |
| 20260505040018 | 55 | 23 | 1.0 | 4.0 | 0.00 | 0.00 | 0.00 | 67 | 1011.2 |
| 20260505035039 | 55 | 315 | 2.0 | 4.0 | 0.00 | 0.00 | 0.00 | 67 | 1011.2 |
| 20260505034019 | 55 | 315 | 1.0 | 5.0 | 0.00 | 0.00 | 0.00 | 66 | 1011.2 |
| 20260505033019 | 55 | 270 | 2.0 | 6.0 | 0.00 | 0.00 | 0.00 | 66 | 1011.2 |
| 20260505032019 | 56 | 293 | 1.0 | 4.0 | 0.00 | 0.00 | 0.00 | 64 | 1011.1 |
| 20260505031019 | 56 | 315 | 1.0 | 6.0 | 0.00 | 0.00 | 0.00 | 64 | 1011.1 |
| 20260505030039 | 57 | 315 | 2.0 | 4.0 | 0.00 | 0.00 | 0.00 | 63 | 1011.1 |
| 20260505025019 | 57 | 338 | 2.0 | 4.0 | 0.00 | 0.00 | 0.00 | 62 | 1011.1 |
| 20260505024019 | 57 | 293 | 2.0 | 5.0 | 0.00 | 0.00 | 0.00 | 61 | 1011.1 |
| 20260505023059 | 57 | 315 | 2.0 | 8.0 | 0.00 | 0.00 | 0.00 | 61 | 1011.2 |
| 20260505022059 | 58 | 293 | 2.0 | 4.0 | 0.00 | 0.00 | 0.00 | 60 | 1011.3 |
| 20260505021019 | 58 | 315 | 2.0 | 7.0 | 0.00 | 0.00 | 0.00 | 59 | 1011.2 |
| 20260505020019 | 58 | 293 | 2.0 | 8.0 | 0.00 | 0.00 | 0.00 | 58 | 1011.2 |
| 20260505015018 | 59 | 338 | 2.0 | 5.0 | 0.00 | 0.00 | 0.00 | 57 | 1011.1 |
| 20260505014019 | 59 | 338 | 2.0 | 5.0 | 0.00 | 0.00 | 0.00 | 56 | 1010.9 |
| 20260505013039 | 59 | 315 | 3.0 | 10.0 | 0.00 | 0.00 | 0.00 | 56 | 1010.9 |
| 20260505012019 | 60 | 315 | 2.0 | 7.0 | 0.00 | 0.00 | 0.00 | 55 | 1010.8 |
| 20260505011019 | 60 | 338 | 2.0 | 6.0 | 0.00 | 0.00 | 0.00 | 54 | 1010.7 |
| 20260505010018 | 60 | 315 | 2.0 | 7.0 | 0.00 | 0.00 | 0.00 | 53 | 1010.5 |
| 20260505005019 | 61 | 293 | 3.0 | 7.0 | 0.00 | 0.00 | 0.00 | 52 | 1010.4 |
| 20260505004018 | 61 | 315 | 2.0 | 6.0 | 0.00 | 0.00 | 0.00 | 52 | 1010.0 |
| 20260505003039 | 62 | 315 | 3.0 | 7.0 | 0.00 | 0.00 | 0.00 | 50 | 1009.8 |
| 20260505002019 | 62 | 293 | 4.0 | 13.0 | 0.00 | 0.00 | 0.00 | 50 | 1009.7 |
| 20260505001019 | 63 | 293 | 2.0 | 7.0 | 0.00 | 0.00 | 0.00 | 49 | 1009.4 |
| 20260505000038 | 63 | 0 | 3.0 | 6.0 | 0.00 | 0.00 | 0.00 | 48 | 1009.2 |
| 20260504235018 | 64 | 293 | 3.0 | 10.0 | 0.00 | 0.00 | 0.00 | 47 | 1008.9 |
| 20260504234018 | 64 | 270 | 4.0 | 9.0 | 0.00 | 0.00 | 0.00 | 46 | 1008.8 |
| 20260504233018 | 65 | 293 | 3.0 | 11.0 | 0.00 | 0.00 | 0.00 | 45 | 1008.8 |
| 20260504232018 | 66 | 293 | 3.0 | 11.0 | 0.00 | 0.00 | 0.00 | 45 | 1008.5 |
| 20260504231019 | 67 | 293 | 3.0 | 7.0 | 0.00 | 0.00 | 0.00 | 43 | 1008.3 |
| 20260504230018 | 67 | 293 | 3.0 | 9.0 | 0.00 | 0.00 | 0.00 | 42 | 1008.2 |
| 20260504225018 | 68 | 315 | 3.0 | 8.0 | 0.00 | 0.00 | 0.00 | 41 | 1008.0 |
| 20260504224018 | 69 | 315 | 3.0 | 9.0 | 0.00 | 0.00 | 0.00 | 39 | 1007.8 |
| 20260504223018 | 70 | 315 | 3.0 | 8.0 | 0.00 | 0.00 | 0.00 | 37 | 1007.8 |
| 20260504222018 | 71 | 293 | 4.0 | 10.0 | 0.00 | 0.00 | 0.00 | 34 | 1007.6 |
| 20260504221018 | 72 | 293 | 3.0 | 9.0 | 0.00 | 0.00 | 0.00 | 33 | 1007.7 |
| 20260504220018 | 72 | 293 | 3.0 | 7.0 | 0.00 | 0.00 | 0.00 | 33 | 1007.6 |
| 20260504215018 | 72 | 203 | 2.0 | 5.0 | 0.00 | 0.00 | 0.00 | 34 | 1007.7 |
| 20260504214018 | 72 | 293 | 3.0 | 7.0 | 0.00 | 0.00 | 0.00 | 33 | 1007.7 |
| 20260504213018 | 72 | 293 | 3.0 | 7.0 | 0.00 | 0.00 | 0.00 | 33 | 1007.7 |
| 20260504212018 | 72 | 270 | 3.0 | 7.0 | 0.00 | 0.00 | 0.00 | 32 | 1007.8 |
| 20260504211018 | 72 | 315 | 3.0 | 8.0 | 0.00 | 0.00 | 0.00 | 33 | 1007.7 |
| 20260504210019 | 73 | 293 | 3.0 | 10.0 | 0.00 | 0.00 | 0.00 | 33 | 1007.7 |
| 20260504205018 | 73 | 293 | 3.0 | 9.0 | 0.00 | 0.00 | 0.00 | 32 | 1007.6 |
| 20260504204018 | 72 | 293 | 3.0 | 7.0 | 0.00 | 0.00 | 0.00 | 33 | 1007.7 |
| 20260504203018 | 73 | 293 | 4.0 | 10.0 | 0.00 | 0.00 | 0.00 | 31 | 1007.7 |
| 20260504202038 | 73 | 315 | 4.0 | 13.0 | 0.00 | 0.00 | 0.00 | 32 | 1007.8 |
| 20260504201018 | 72 | 270 | 5.0 | 15.0 | 0.00 | 0.00 | 0.00 | 30 | 1007.8 |
| 20260504200018 | 73 | 315 | 4.0 | 13.0 | 0.00 | 0.00 | 0.00 | 31 | 1007.9 |
| 20260504195018 | 73 | 270 | 3.0 | 9.0 | 0.00 | 0.00 | 0.00 | 32 | 1007.9 |
| 20260504194018 | 72 | 270 | 4.0 | 10.0 | 0.00 | 0.00 | 0.00 | 31 | 1007.9 |
| 20260504193018 | 72 | 270 | 3.0 | 9.0 | 0.00 | 0.00 | 0.00 | 32 | 1007.9 |
| 20260504192018 | 72 | 293 | 3.0 | 8.0 | 0.00 | 0.00 | 0.00 | 31 | 1007.9 |
| 20260504191018 | 72 | 293 | 5.0 | 10.0 | 0.00 | 0.00 | 0.00 | 30 | 1008.2 |
| 20260504190059 | 72 | 293 | 6.0 | 12.0 | 0.00 | 0.00 | 0.00 | 31 | 1008.1 |
| 20260504185018 | 72 | 315 | 5.0 | 11.0 | 0.00 | 0.00 | 0.00 | 31 | 1008.2 |
| 20260504184018 | 71 | 293 | 6.0 | 17.0 | 0.00 | 0.00 | 0.00 | 30 | 1008.3 |
| 20260504183038 | 72 | 270 | 4.0 | 16.0 | 0.00 | 0.00 | 0.00 | 31 | 1008.6 |
| 20260504182038 | 71 | 293 | 4.0 | 10.0 | 0.00 | 0.00 | 0.00 | 30 | 1008.6 |
| 20260504181018 | 70 | 315 | 5.0 | 13.0 | 0.00 | 0.00 | 0.00 | 32 | 1008.6 |
| 20260504180018 | 70 | 315 | 5.0 | 17.0 | 0.00 | 0.00 | 0.00 | 33 | 1008.7 |
| 20260504175018 | 70 | 270 | 6.0 | 12.0 | 0.00 | 0.00 | 0.00 | 34 | 1008.7 |
| 20260504174018 | 70 | 293 | 6.0 | 10.0 | 0.00 | 0.00 | 0.00 | 33 | 1008.8 |
| 20260504173038 | 70 | 293 | 4.0 | 13.0 | 0.00 | 0.00 | 0.00 | 34 | 1009.1 |
| 20260504172058 | 70 | 293 | 3.0 | 9.0 | 0.00 | 0.00 | 0.00 | 33 | 1009.0 |
| 20260504171018 | 69 | 270 | 5.0 | 12.0 | 0.00 | 0.00 | 0.00 | 36 | 1009.0 |
| 20260504151100 | 66 | 293 | 4.0 | 11.0 | 0.00 | 0.00 | 0.00 | 38 | 1010.3 |
| 20260504141018 | 64 | 270 | 3.0 | 10.0 | 0.00 | 0.00 | 0.00 | 40 | 1010.5 |